[[[{"header":{"parameterUnit":"kt","parameterCategory":2,"dx":1,"dy":1,"la1":30.253999710083008,"la2":30.299108505249023,"lo1":-89.0895004272461,"lo2":-89.04439544677734,"nx":28,"ny":28,"refTime":"2022-10-24T21:00:00:Z","depth":0,"parameterNumber":1,"parameterNumberName":"U-component_of_WINDS"},"data":[-9.3373,-9.3516,-9.3588,-9.3784,-9.3882,-9.4027,-9.4102,-9.4206,-9.4307,-9.4488,-9.4605,-9.4691,-9.482,-9.4975,-9.5103,-9.5139,-9.5187,-9.5185,-9.5226,-9.5174,-9.5172,-9.5169,-9.514,-9.5195,-9.5195,-9.5269,-9.5269,-9.527,-9.3327,-9.3425,-9.3551,-9.3721,-9.3828,-9.3875,-9.4013,-9.4099,-9.4228,-9.4354,-9.4473,-9.4638,-9.4776,-9.4909,-9.5054,-9.512,-9.5149,-9.5154,-9.5149,-9.5168,-9.5116,-9.5084,-9.5128,-9.5128,-9.5128,-9.5128,-9.5128,-9.5128,-9.3261,-9.3344,-9.349,-9.3627,-9.3733,-9.3846,-9.3937,-9.4043,-9.4165,-9.4327,-9.439,-9.4536,-9.4675,-9.4886,-9.4974,-9.5089,-9.5096,-9.5124,-9.513,-9.5135,-9.5129,-9.5009,-9.5118,-9.5118,-9.5118,-9.5118,-9.5118,0,-9.3235,-9.3291,-9.3416,-9.3563,-9.3667,-9.3788,-9.3911,-9.397,-9.4111,-9.4206,-9.435,-9.4445,-9.4632,-9.4773,-9.4926,-9.5013,-9.5068,-9.5083,-9.5102,-9.5072,-9.5025,-9.5049,-9.4958,-9.5079,-9.5078,-9.5078,-9.5078,-9.5078,-9.3172,-9.3261,-9.345,-9.3528,-9.3614,-9.3739,-9.3827,-9.3946,-9.4035,-9.4203,-9.427,-9.4415,-9.4537,-9.4754,-9.4874,-9.5013,-9.5041,-9.5079,-9.5062,-9.503,-9.5039,-9.5031,-9.504,-9.5078,-9.5078,-9.5078,-9.5078,0,-9.3129,-9.3249,-9.3411,-9.3589,-9.3637,-9.3723,-9.3876,-9.3963,-9.4057,-9.419,-9.4227,-9.4373,-9.4511,-9.4628,-9.4809,-9.4865,-9.5005,-9.503,-9.4958,-9.4968,-9.5011,-9.5004,-9.5139,-9.5162,-9.5109,-9.5109,-9.5109,0,-9.3121,-9.3233,-9.3406,-9.3493,-9.3622,-9.3739,-9.3863,-9.3955,-9.4079,-9.4185,-9.4269,-9.4366,-9.45,-9.4613,-9.4696,-9.4832,-9.4867,-9.4917,-9.4937,-9.4908,-9.4901,-9.4954,-9.4949,-9.4982,-9.4982,-9.4981,-9.498,0,-9.3039,-9.3264,-9.3408,-9.3478,-9.368,-9.3744,-9.3831,-9.397,-9.4056,-9.4187,-9.4243,-9.4386,-9.4463,-9.4572,-9.4676,-9.466,-9.4847,-9.4846,-9.4897,-9.4894,-9.4929,-9.4925,-9.5018,-9.4979,-9.4979,-9.4979,-9.4979,0,-9.305,-9.3182,-9.3373,-9.3542,-9.3596,-9.3691,-9.384,-9.3949,-9.4089,-9.4149,-9.4252,-9.4321,-9.4451,-9.4442,-9.4623,-9.4572,-9.4643,-9.4704,-9.471,-9.4725,-9.4711,-9.4744,-9.4823,-9.4835,-9.4743,-9.4741,-9.474,0,-9.2921,-9.3147,-9.325,-9.3429,-9.3549,-9.3635,-9.3742,-9.3865,-9.3953,-9.4067,-9.4164,-9.4292,-9.431,-9.4366,-9.4441,-9.4544,-9.461,-9.4539,-9.4696,-9.47,-9.4653,-9.4729,-9.471,-9.4794,-9.4716,-9.4719,-9.4721,0,-9.2836,-9.3083,-9.3108,-9.3193,-9.3376,-9.3477,-9.3601,-9.3755,-9.3824,-9.3954,-9.4059,-9.4243,-9.4264,-9.4355,-9.4426,-9.4497,-9.4569,-9.4509,-9.4515,-9.4514,-9.4715,-9.4697,-9.471,-9.4601,-9.4604,-9.4606,-9.4702,0,-9.2821,-9.2951,-9.3024,-9.321,-9.3307,-9.3426,-9.3552,-9.3638,-9.3697,-9.3787,-9.3944,-9.4076,-9.423,-9.4278,-9.4336,-9.4464,-9.446,-9.448,-9.4477,-9.4526,-9.4561,-9.4575,-9.4416,-9.4416,-9.4417,-9.4417,0,0,-9.2666,-9.2855,-9.2965,-9.309,-9.3178,-9.3267,-9.3382,-9.3479,-9.367,-9.3728,-9.3729,-9.4006,-9.4112,-9.4289,-9.4314,-9.4378,-9.4411,-9.4389,-9.4503,-9.4512,-9.452,-9.4555,-9.4568,-9.4418,-9.4419,-9.4419,-9.4419,0,-9.2687,-9.2798,-9.2913,-9.3018,-9.3178,-9.3269,-9.3296,-9.3469,-9.3532,-9.3689,-9.3757,-9.3866,-9.4085,-9.4187,-9.4268,-9.4372,-9.4415,-9.441,-9.4423,-9.4504,-9.4512,-9.452,-9.4555,-9.4566,-9.442,-9.442,-9.442,0,-9.2624,-9.2753,-9.2822,-9.303,-9.3135,-9.3257,-9.3286,-9.3414,-9.3505,-9.3593,-9.3745,-9.3835,-9.3983,-9.4135,-9.4208,-9.421,-9.4412,-9.4371,-9.4371,-9.4381,-9.4465,-9.4474,-9.4483,-9.4368,-9.4367,-9.4366,0,0,-9.2623,-9.2746,-9.2921,-9.3044,-9.3106,-9.3243,-9.332,-9.3388,-9.3521,-9.3574,-9.3689,-9.3815,-9.3944,-9.4025,-9.4152,-9.4302,-9.4341,-9.4359,-9.4362,-9.4364,-9.4374,-9.4458,-9.4468,-9.4364,-9.4364,-9.4364,0,0,-9.2623,-9.2831,-9.2868,-9.3028,-9.3153,-9.3332,-9.3402,-9.3451,-9.3578,-9.3578,-9.3696,-9.3735,-9.3879,-9.3964,-9.3915,-9.4153,-9.4148,-9.4162,-9.4092,-9.4097,-9.4099,-9.4074,-9.396,0,0,0,0,0,-9.2709,-9.2806,-9.2837,-9.2883,-9.3146,-9.3315,-9.3349,-9.345,-9.3444,-9.3497,-9.3602,-9.3644,-9.3962,-9.3921,-9.3963,-9.4016,-9.433,-9.4336,-9.4342,-9.4287,-9.4291,-9.4294,0,0,0,0,0,0,-9.2727,-9.2783,-9.2835,-9.3016,-9.3076,-9.3313,-9.3325,-9.3355,-9.3441,-9.3447,-9.3623,-9.365,-9.3738,-9.3906,-9.3943,-9.3991,-9.3948,-9.4332,-9.4338,-9.4342,-9.4288,-9.4291,-9.4294,0,0,0,0,0,-9.2743,-9.2788,-9.3183,-9.3016,-9.3068,-9.3226,-9.3322,-9.3348,-9.3416,-9.3578,-9.3606,-9.3484,-9.3736,-9.3774,-9.3928,-9.3972,-9.3924,-9.3937,-9.4336,-9.434,-9.4343,-9.429,0,0,0,0,0,0,-9.2754,-9.2812,-9.3195,-9.3215,-9.2987,-9.3214,-9.3254,-9.334,-9.3543,-9.3572,-9.3444,-9.3446,-9.3737,-9.3766,-9.3794,-9.3959,-9.3904,-9.3917,-9.3926,-9.4339,-9.4342,-9.4345,0,0,0,0,0,0,-9.2788,-9.2827,-9.3205,-9.3163,-9.3179,-9.3203,-9.3238,-9.3384,-9.3544,-9.3398,-9.3406,-9.3443,-9.3693,-9.376,-9.3783,-9.4006,-9.3888,-9.3901,-9.391,-9.3916,-9.4341,-9.4344,0,0,0,0,0,0,-9.2806,-9.284,-9.3159,-9.3171,-9.3185,-9.3412,-9.3334,-9.3596,-9.351,-9.3387,-9.3505,-9.3502,-9.3686,-9.3711,-9.3775,-9.3988,-9.4001,-9.3889,-9.3897,-9.3904,-9.3908,0,0,0,0,0,0,0,-9.2821,-9.2571,-9.308,-9.3177,-9.3189,-9.3396,-9.3401,-9.3406,-9.3509,-9.3507,-9.3505,-9.3503,-9.3814,-9.3829,-9.3843,-9.3973,0,0,-9.3887,-9.3894,0,0,0,0,0,0,0,0,-9.2559,-9.2568,-9.308,-9.3084,-9.3088,-9.3397,-9.3401,-9.3405,-9.3509,-9.3507,-9.3506,-9.3504,-9.3818,-9.383,-9.3841,0,0,0,0,0,0,0,0,0,0,0,0,0,0,0,-9.3081,-9.3084,0,-9.3397,-9.3401,-9.3404,-9.3509,-9.3507,-9.3506,-9.3505,-9.3821,-9.3831,-9.384,0,0,0,0,0,0,0,0,0,0,0,0,0,0,0,0,0,0,0,0,0,0,0,0,0,0,0,0,0,0,0,0,0,0,0,0,0,0,0,0,0,0,0,0,0,0,0,0,0,0,0,0,0,0,0,0,0,0,0,0,0,0,0,0,0,0,0,0,0]}],[{"header":{"parameterUnit":"kt","parameterCategory":2,"dx":1,"dy":1,"la1":30.253999710083008,"la2":30.299108505249023,"lo1":-89.0895004272461,"lo2":-89.04439544677734,"nx":28,"ny":28,"refTime":"2022-10-24T21:00:00:Z","depth":0,"parameterNumber":2,"parameterNumberName":"V-component_of_WINDS"},"data":[13.4045,13.4207,13.4239,13.4437,13.4498,13.4639,13.4698,13.4779,13.4849,13.5019,13.5121,13.5166,13.5247,13.5375,13.5485,13.5502,13.5548,13.5585,13.5599,13.5409,13.5385,13.5361,13.5327,13.5594,13.5594,13.5792,13.5793,13.5795,13.3909,13.3972,13.4086,13.4216,13.4314,13.4299,13.44,13.4482,13.4607,13.4694,13.4796,13.4946,13.5067,13.5136,13.5257,13.5332,13.533,13.5362,13.5358,13.5371,13.5169,13.5132,13.5362,13.5362,13.5362,13.5362,13.5362,13.5362,13.367,13.3766,13.3863,13.3986,13.4059,13.4146,13.4241,13.4295,13.4404,13.4535,13.4547,13.4688,13.4779,13.4937,13.4996,13.5105,13.5074,13.5117,13.5129,13.514,13.515,13.4867,13.5126,13.5125,13.5125,13.5124,13.5124,0,13.3506,13.3525,13.3635,13.3755,13.3845,13.394,13.4031,13.409,13.4137,13.4224,13.4354,13.4433,13.4587,13.4711,13.4829,13.4881,13.4871,13.4871,13.4902,13.49,13.4885,13.4898,13.457,13.4863,13.4861,13.4859,13.4858,13.4857,13.3269,13.3375,13.3489,13.3562,13.3619,13.3735,13.381,13.3843,13.3921,13.4036,13.4117,13.4241,13.4342,13.454,13.4597,13.4712,13.4708,13.4817,13.4724,13.4719,13.4713,13.4707,13.4719,13.4835,13.4837,13.484,13.4842,0,13.3134,13.3182,13.3354,13.3455,13.3484,13.3592,13.3678,13.3772,13.3812,13.3947,13.398,13.4042,13.4166,13.4206,13.4353,13.437,13.455,13.4541,13.452,13.4522,13.4625,13.4616,13.4951,13.4997,13.4718,13.4721,13.4723,0,13.2952,13.3088,13.3152,13.3249,13.3401,13.3431,13.358,13.3629,13.3707,13.3814,13.3808,13.3908,13.3942,13.4047,13.4071,13.4224,13.4251,13.4273,13.4278,13.4275,13.4273,13.4316,13.4304,13.4282,13.428,13.4279,13.4277,0,13.2737,13.2928,13.3086,13.3137,13.3256,13.3329,13.3382,13.3468,13.354,13.3639,13.3686,13.3797,13.3859,13.3945,13.3976,13.3912,13.4162,13.408,13.4185,13.4185,13.4239,13.4235,13.4521,13.4275,13.4275,13.4274,13.4273,0,13.2597,13.2699,13.2919,13.3019,13.3067,13.317,13.3284,13.338,13.3471,13.3494,13.3571,13.3571,13.3706,13.3623,13.3809,13.3718,13.3779,13.3812,13.382,13.3835,13.3741,13.39,13.4167,13.4197,13.3849,13.3846,13.3842,0,13.234,13.2574,13.26,13.2808,13.2922,13.291,13.3024,13.3104,13.3144,13.3245,13.3287,13.34,13.3346,13.3386,13.3474,13.3521,13.364,13.3506,13.3651,13.3656,13.363,13.3876,13.3907,13.4104,13.3797,13.3802,13.3806,0,13.2146,13.2289,13.2324,13.2384,13.2494,13.2588,13.2718,13.2837,13.2904,13.2992,13.3102,13.326,13.3227,13.3293,13.3303,13.3392,13.356,13.3343,13.3345,13.3383,13.3777,13.3806,13.3839,13.3548,13.3553,13.3558,13.377,0,13.1929,13.205,13.2146,13.2274,13.2352,13.2482,13.2524,13.26,13.2604,13.2642,13.2803,13.2874,13.2993,13.3038,13.304,13.323,13.3204,13.3166,13.3087,13.3247,13.3318,13.3347,13.2979,13.2977,13.2975,13.2973,0,0,13.1672,13.1846,13.1869,13.1996,13.2064,13.2048,13.2184,13.2246,13.2372,13.2419,13.2376,13.2609,13.2668,13.2858,13.2911,13.2957,13.2995,13.2936,13.317,13.3192,13.3212,13.3288,13.3317,13.297,13.2969,13.2969,13.2968,0,13.1602,13.1666,13.18,13.1867,13.1966,13.2,13.2032,13.2126,13.2156,13.2312,13.2294,13.2394,13.2576,13.2644,13.2701,13.2915,13.2894,13.2947,13.305,13.3151,13.3175,13.3197,13.3275,13.3303,13.2964,13.2964,13.2964,0,13.142,13.1491,13.1559,13.171,13.1774,13.1888,13.1818,13.1941,13.2026,13.1997,13.2152,13.2196,13.2287,13.2459,13.2538,13.25,13.2802,13.2711,13.2723,13.2733,13.2832,13.2861,13.2887,13.2548,13.2546,13.2545,0,0,13.1353,13.1465,13.1549,13.1698,13.174,13.179,13.1853,13.1864,13.1947,13.198,13.2036,13.2116,13.2223,13.2292,13.2394,13.2577,13.2598,13.2658,13.2678,13.2694,13.2712,13.2816,13.2844,13.2539,13.2539,13.2538,0,0,13.1321,13.1425,13.1414,13.1592,13.1674,13.1764,13.1853,13.1841,13.1937,13.1926,13.1945,13.1967,13.2128,13.2171,13.2087,13.2366,13.2288,13.2309,13.2332,13.2358,13.2377,13.2363,13.2022,0,0,0,0,0,13.127,13.1412,13.1402,13.1437,13.1625,13.177,13.1794,13.1815,13.1761,13.1831,13.1877,13.185,13.2131,13.2056,13.209,13.2184,13.2461,13.2475,13.2488,13.2562,13.2588,13.261,0,0,0,0,0,0,13.1284,13.1328,13.1398,13.1494,13.1536,13.1765,13.1678,13.1688,13.1754,13.1747,13.1842,13.1853,13.1871,13.204,13.207,13.2159,13.2011,13.2467,13.2478,13.2489,13.257,13.2592,13.261,0,0,0,0,0,13.1296,13.1331,13.1626,13.1492,13.1529,13.1591,13.1673,13.168,13.1731,13.1801,13.1811,13.1741,13.1873,13.19,13.2058,13.2145,13.199,13.2002,13.2474,13.2483,13.2492,13.2581,0,0,0,0,0,0,13.1304,13.1338,13.1634,13.1646,13.1439,13.1578,13.1601,13.1673,13.1781,13.1793,13.17,13.1693,13.1877,13.1897,13.1918,13.2139,13.1973,13.1985,13.1992,13.2481,13.2488,13.2495,0,0,0,0,0,0,13.1319,13.1348,13.164,13.1573,13.1577,13.1567,13.1587,13.1722,13.1782,13.1674,13.1671,13.1695,13.1844,13.1895,13.1911,13.2121,13.196,13.1971,13.1979,13.1984,13.2487,13.2493,0,0,0,0,0,0,13.1332,13.1357,13.157,13.1573,13.1577,13.1712,13.1686,13.1876,13.1727,13.1669,13.1714,13.1708,13.1843,13.186,13.1907,13.211,13.2119,13.1961,13.1968,13.1973,13.1977,0,0,0,0,0,0,0,13.1342,13.117,13.1564,13.1574,13.1576,13.1757,13.176,13.1763,13.1726,13.1721,13.1716,13.1711,13.1897,13.1909,13.1922,13.2102,0,0,13.1959,13.1965,0,0,0,0,0,0,0,0,13.1159,13.1167,13.1564,13.1567,13.1569,13.1757,13.176,13.1762,13.1725,13.1721,13.1717,13.1713,13.1901,13.191,13.192,0,0,0,0,0,0,0,0,0,0,0,0,0,0,0,13.1565,13.1567,0,13.1757,13.176,13.1762,13.1725,13.1721,13.1718,13.1714,13.1903,13.1911,13.192,0,0,0,0,0,0,0,0,0,0,0,0,0,0,0,0,0,0,0,0,0,0,0,0,0,0,0,0,0,0,0,0,0,0,0,0,0,0,0,0,0,0,0,0,0,0,0,0,0,0,0,0,0,0,0,0,0,0,0,0,0,0,0,0,0,0,0,0,0]}]]]